| time (UTC) | temp C | wind direction | speed KPH | gust KPH | rain 1hr cm | rain 24hr cm | rain mn cm | humidity % | barometer mb |
| 20260505031501 | 10 | 0 | 0.0 | 0.0 | 0.00 | 0.10 | 0.10 | 84 | 1001.1 |
| 20260505030501 | 11 | 0 | 0.0 | 0.0 | 0.00 | 0.10 | 0.10 | 85 | 1001.0 |
| 20260505030000 | 11 | 0 | 0.0 | 0.0 | 0.00 | 0.10 | 0.10 | 84 | 1002.3 |
| 20260505025001 | 11 | 0 | 0.0 | 0.0 | 0.00 | 0.10 | 0.10 | 82 | 1001.9 |
| 20260505024001 | 11 | 0 | 0.0 | 0.0 | 0.00 | 0.10 | 0.10 | 82 | 1001.9 |
| 20260505023500 | 11 | 0 | 0.0 | 0.0 | 0.00 | 0.10 | 0.10 | 81 | 1001.8 |
| 20260505021500 | 11 | 0 | 0.0 | 0.0 | 0.03 | 0.10 | 0.10 | 82 | 1001.5 |
| 20260505015500 | 11 | 0 | 0.0 | 0.0 | 0.05 | 0.10 | 0.10 | 81 | 1002.8 |
| 20260505014001 | 12 | 0 | 0.0 | 0.0 | 0.05 | 0.10 | 0.10 | 79 | 1002.5 |
| 20260505012500 | 12 | 0 | 0.0 | 0.0 | 0.05 | 0.10 | 0.10 | 77 | 1002.6 |
| 20260505011000 | 12 | 0 | 0.0 | 0.0 | 0.03 | 0.08 | 0.08 | 74 | 1002.0 |
| 20260505005500 | 13 | 0 | 0.0 | 0.0 | 0.03 | 0.05 | 0.05 | 67 | 1003.0 |
| 20260505005001 | 13 | 2 | 3.2 | 9.7 | 0.05 | 0.05 | 0.05 | 63 | 1002.7 |
| 20260505004001 | 13 | 51 | 0.0 | 4.8 | 0.05 | 0.05 | 0.05 | 63 | 1002.6 |
| 20260505003500 | 13 | 87 | 0.0 | 1.6 | 0.05 | 0.05 | 0.05 | 65 | 1002.6 |
| 20260505002500 | 14 | 87 | 0.0 | 0.0 | 0.05 | 0.05 | 0.05 | 66 | 1002.5 |
| 20260505000501 | 15 | 87 | 0.0 | 9.7 | 0.05 | 0.05 | 0.05 | 48 | 1002.1 |
| 20260504235001 | 17 | 281 | 0.0 | 4.8 | 0.00 | 0.00 | 0.00 | 53 | 1002.2 |
| 20260504233501 | 17 | 311 | 0.0 | 4.8 | 0.00 | 0.00 | 0.00 | 35 | 1001.4 |
| 20260504232001 | 18 | 333 | 0.0 | 1.6 | 0.00 | 0.00 | 0.00 | 35 | 1001.0 |
| 20260504231500 | 18 | 340 | 0.0 | 4.8 | 0.00 | 0.00 | 0.00 | 35 | 1000.8 |
| 20260504224501 | 18 | 346 | 1.6 | 8.0 | 0.00 | 0.00 | 0.00 | 33 | 999.9 |
| 20260504223501 | 18 | 3 | 3.2 | 11.3 | 0.00 | 0.00 | 0.00 | 33 | 1000.0 |
| 20260504223001 | 18 | 358 | 4.8 | 11.3 | 0.00 | 0.00 | 0.00 | 34 | 1000.0 |
| 20260504222001 | 18 | 346 | 0.0 | 8.0 | 0.00 | 0.00 | 0.00 | 34 | 999.9 |
| 20260504221001 | 18 | 334 | 3.2 | 9.7 | 0.00 | 0.00 | 0.00 | 34 | 1000.0 |
| 20260504212001 | 18 | 332 | 3.2 | 19.3 | 0.00 | 0.00 | 0.00 | 36 | 1000.7 |
| 20260504211501 | 18 | 335 | 4.8 | 29.0 | 0.00 | 0.00 | 0.00 | 35 | 1000.7 |
| 20260504211001 | 19 | 349 | 6.4 | 19.3 | 0.00 | 0.00 | 0.00 | 33 | 1000.7 |
| 20260504210501 | 19 | 359 | 4.8 | 19.3 | 0.00 | 0.00 | 0.00 | 32 | 1000.6 |
| 20260504210001 | 19 | 354 | 8.0 | 19.3 | 0.00 | 0.00 | 0.00 | 32 | 1000.1 |
| 20260504205001 | 18 | 3 | 6.4 | 14.5 | 0.00 | 0.00 | 0.00 | 33 | 1000.3 |
| 20260504204501 | 18 | 358 | 8.0 | 19.3 | 0.00 | 0.00 | 0.00 | 33 | 1000.3 |
| 20260504204001 | 18 | 3 | 8.0 | 19.3 | 0.00 | 0.00 | 0.00 | 32 | 1000.4 |
| 20260504203501 | 18 | 3 | 9.7 | 20.9 | 0.00 | 0.00 | 0.00 | 33 | 1000.4 |
| 20260504201501 | 18 | 2 | 14.5 | 25.7 | 0.00 | 0.00 | 0.00 | 31 | 999.9 |
| 20260504201001 | 18 | 349 | 11.3 | 25.7 | 0.00 | 0.00 | 0.00 | 31 | 1000.0 |
| 20260504200501 | 18 | 341 | 8.0 | 27.4 | 0.00 | 0.00 | 0.00 | 30 | 1000.4 |
| 20260504193001 | 20 | 1 | 8.0 | 24.1 | 0.00 | 0.00 | 0.00 | 27 | 998.8 |
| 20260504192500 | 20 | 3 | 8.0 | 16.1 | 0.00 | 0.00 | 0.00 | 26 | 998.6 |
| 20260504190501 | 22 | 0 | 0.0 | 4.8 | 0.00 | 0.00 | 0.00 | 21 | 997.9 |
| 20260504190001 | 22 | 309 | 0.0 | 4.8 | 0.00 | 0.00 | 0.00 | 24 | 997.2 |
| 20260504185002 | 22 | 351 | 3.2 | 11.3 | 0.00 | 0.00 | 0.00 | 23 | 997.1 |
| 20260504184001 | 22 | 5 | 0.0 | 11.3 | 0.00 | 0.00 | 0.00 | 24 | 996.9 |
| 20260504180501 | 23 | 322 | 0.0 | 4.8 | 0.00 | 0.00 | 0.00 | 23 | 996.7 |
| 20260504175001 | 23 | 279 | 1.6 | 8.0 | 0.00 | 0.00 | 0.00 | 24 | 996.3 |
| 20260504174501 | 23 | 197 | 1.6 | 4.8 | 0.00 | 0.00 | 0.00 | 23 | 996.3 |
| 20260504174001 | 23 | 180 | 1.6 | 19.3 | 0.00 | 0.00 | 0.00 | 22 | 996.2 |
| 20260504173501 | 23 | 214 | 1.6 | 4.8 | 0.00 | 0.00 | 0.00 | 22 | 996.3 |
| 20260504173001 | 23 | 291 | 1.6 | 4.8 | 0.00 | 0.00 | 0.00 | 23 | 996.4 |
| 20260504171502 | 22 | 254 | 0.0 | 3.2 | 0.00 | 0.00 | 0.00 | 21 | 996.4 |
| 20260504170501 | 22 | 312 | 0.0 | 4.8 | 0.00 | 0.00 | 0.00 | 22 | 996.6 |
| 20260504141002 | 10 | 30 | 0.0 | 0.0 | 0.00 | 0.00 | 0.00 | 52 | 1000.3 |
| 20260504140501 | 10 | 30 | 0.0 | 0.0 | 0.00 | 0.00 | 0.00 | 53 | 1000.2 |
| 20260504110502 | 5 | 30 | 0.0 | 0.0 | 0.00 | 0.00 | 0.00 | 60 | 1000.3 |
| 20260504050002 | 14 | 88 | 0.0 | 0.0 | 0.00 | 0.00 | 0.00 | 38 | 999.8 |
| 20260504045002 | 15 | 88 | 0.0 | 0.0 | 0.00 | 0.00 | 0.00 | 36 | 999.8 |
| 20260504043002 | 15 | 90 | 1.6 | 4.8 | 0.00 | 0.00 | 0.00 | 33 | 999.3 |
| 20260504042502 | 15 | 90 | 0.0 | 4.8 | 0.00 | 0.00 | 0.00 | 32 | 999.5 |
| 20260504042002 | 16 | 90 | 0.0 | 0.0 | 0.00 | 0.00 | 0.00 | 32 | 999.8 |
| 20260504041002 | 16 | 89 | 0.0 | 8.0 | 0.00 | 0.00 | 0.00 | 31 | 999.5 |
| 20260504040002 | 17 | 54 | 1.6 | 8.0 | 0.00 | 0.00 | 0.00 | 30 | 1000.0 |